Westminster, MD

1:28 AM EDT on July 25, 2017 (GMT -0400)
Carroll County Regional-Poage

Weather History for KDMW - September, 2013

Change the Weather History Date:

Friday, September 6, 2013

  Actual Average (KTHV) Record (KTHV)
Temperature  
Mean Temperature 63 °F -  
Max Temperature 73 °F 0 °F 91 °F (1998)
Min Temperature 53 °F - 39 °F (2000)
Degree Days  
Heating Degree Days 2    
Growing Degree Days 13 (Base 50)    
Moisture  
Dew Point 44 °F    
Average Humidity 54    
Maximum Humidity 77    
Minimum Humidity 29    
Precipitation  
Precipitation 0.00 in - - ()
Sea Level Pressure  
Sea Level Pressure 30.22 in    
Wind  
Wind Speed 3 mph (NNE)    
Max Wind Speed 7 mph    
Max Gust Speed -    
Visibility 10 miles    
Events      
Averages and records for this station are not official NWS values.
T = Trace of Precipitation, MM = Missing Value Source: NWS Daily Summary

Daily Weather History Graph

Daily Weather History Graph

Search for Another Location

Airport or City:

Trip Planner

Search our weather history database for the weather conditions in past years. The results will help you decide how hot, cold, wet, or windy it might be!

Date:

Astronomy

Sep. 06, 2013 Rise Set
Actual Time 6:41 AM EDT 7:30 PM EDT
Civil Twilight 6:13 AM EDT 7:58 PM EDT
Nautical Twilight 5:41 AM EDT 8:30 PM EDT
Astronomical Twilight 5:07 AM EDT 9:03 PM EDT
Moon 7:50 AM EDT (9/6) 7:54 PM EDT (9/6)
Length of Visible Light 13h 44m
Length of Day
12h 49m
New Moon, 1% of the Moon is Illuminated
Sep 6
New Moon
Sep 12
First Quarter
Sep 19
Full
Sep 26
Last Quarter
Oct 4
New

Hourly Weather History & Observations

Time (EDT) Temp. Dew Point Humidity Pressure Visibility Wind Dir Wind Speed Gust Speed Precip Events Conditions
12:10 AM 57.2 °F 48.2 °F 72% 30.17 in 10.0 mi Calm Calm - N/A   Clear
12:30 AM 57.2 °F 46.4 °F 67% 30.18 in 10.0 mi NNE 3.5 mph - N/A   Clear
12:50 AM 57.2 °F 46.4 °F 67% 30.20 in 10.0 mi NNE 4.6 mph - N/A   Clear
1:10 AM 57.2 °F 46.4 °F 67% 30.20 in 10.0 mi NNE 3.5 mph - N/A   Clear
1:30 AM 59.0 °F 46.4 °F 63% 30.21 in 10.0 mi NE 6.9 mph - N/A   Clear
1:50 AM 57.2 °F 46.4 °F 67% 30.21 in 10.0 mi NE 4.6 mph - N/A   Clear
2:10 AM 57.2 °F 46.4 °F 67% 30.22 in 10.0 mi NNE 4.6 mph - N/A   Clear
2:30 AM 57.2 °F 48.2 °F 72% 30.22 in 10.0 mi NNE 3.5 mph - N/A   Clear
2:50 AM 55.4 °F 48.2 °F 77% 30.22 in 10.0 mi NNE 3.5 mph - N/A   Clear
3:10 AM 55.4 °F 48.2 °F 77% 30.22 in 10.0 mi NNE 3.5 mph - N/A   Clear
3:30 AM 55.4 °F 48.2 °F 77% 30.23 in 10.0 mi NE 3.5 mph - N/A   Clear
3:50 AM 55.4 °F 46.4 °F 72% 30.23 in 10.0 mi NNE 3.5 mph - N/A   Clear
4:10 AM 55.4 °F 46.4 °F 72% 30.23 in 10.0 mi NE 4.6 mph - N/A   Clear
4:30 AM 53.6 °F 46.4 °F 77% 30.22 in 10.0 mi NNE 3.5 mph - N/A   Clear
4:50 AM 53.6 °F 46.4 °F 77% 30.23 in 10.0 mi ENE 4.6 mph - N/A   Clear
5:15 AM 53.6 °F 46.4 °F 77% 30.23 in 10.0 mi NE 5.8 mph - N/A   Clear
5:35 AM 53.6 °F 44.6 °F 72% 30.24 in 10.0 mi NNE 4.6 mph - N/A   Clear
5:55 AM 53.6 °F 44.6 °F 72% 30.24 in 10.0 mi NNE 3.5 mph - N/A   Clear
6:15 AM 53.6 °F 44.6 °F 72% 30.24 in 10.0 mi NNE 4.6 mph - N/A   Clear
6:35 AM 53.6 °F 46.4 °F 77% 30.25 in 10.0 mi NNE 4.6 mph - N/A   Clear
6:55 AM 53.6 °F 44.6 °F 72% 30.26 in 10.0 mi NNE 5.8 mph - N/A   Clear
7:15 AM 53.6 °F 44.6 °F 72% 30.27 in 10.0 mi NNE 3.5 mph - N/A   Clear
7:35 AM 53.6 °F 44.6 °F 72% 30.27 in 10.0 mi NNE 3.5 mph - N/A   Clear
7:55 AM 55.4 °F 42.8 °F 63% 30.28 in 10.0 mi NE 3.5 mph - N/A   Clear
8:15 AM 55.4 °F 42.8 °F 63% 30.28 in 10.0 mi NNE 4.6 mph - N/A   Clear
8:35 AM 57.2 °F 44.6 °F 63% 30.28 in 10.0 mi NE 4.6 mph - N/A   Clear
8:55 AM 57.2 °F 42.8 °F 59% 30.28 in 10.0 mi NE 5.8 mph - N/A   Clear
9:15 AM 59.0 °F 42.8 °F 55% 30.28 in 10.0 mi NE 6.9 mph - N/A   Clear
9:35 AM 60.8 °F 42.8 °F 52% 30.29 in 10.0 mi NNE 5.8 mph - N/A   Clear
9:55 AM 60.8 °F 41.0 °F 48% 30.29 in 10.0 mi ENE 5.8 mph - N/A   Clear
10:15 AM 60.8 °F 39.2 °F 45% 30.29 in 10.0 mi ENE 3.5 mph - N/A   Clear
10:35 AM 62.6 °F 41.0 °F 45% 30.29 in 10.0 mi East 5.8 mph - N/A   Clear
10:55 AM 62.6 °F 39.2 °F 42% 30.29 in 10.0 mi North 5.8 mph - N/A   Clear
11:15 AM 64.4 °F 39.2 °F 40% 30.29 in 10.0 mi NE 5.8 mph - N/A   Clear
11:35 AM 64.4 °F 39.2 °F 40% 30.28 in 10.0 mi Calm Calm - N/A   Clear
11:55 AM 64.4 °F 39.2 °F 40% 30.28 in 10.0 mi Calm Calm - N/A   Clear
12:15 PM 66.2 °F 41.0 °F 40% 30.27 in 10.0 mi Calm Calm - N/A   Clear
12:35 PM 66.2 °F 41.0 °F 40% 30.27 in 10.0 mi NNW 4.6 mph - N/A   Clear
12:55 PM 68.0 °F 42.8 °F 40% 30.26 in 10.0 mi North 5.8 mph - N/A   Clear
1:15 PM 68.0 °F 41.0 °F 37% 30.26 in 10.0 mi NW 4.6 mph - N/A   Clear
1:35 PM 69.8 °F 42.8 °F 38% 30.25 in 10.0 mi North 3.5 mph - N/A   Clear
1:55 PM 69.8 °F 44.6 °F 40% 30.24 in 10.0 mi NNW 3.5 mph - N/A   Clear
2:15 PM 69.8 °F 44.6 °F 40% 30.23 in 10.0 mi Calm Calm - N/A   Clear
2:35 PM 71.6 °F 41.0 °F 33% 30.23 in 10.0 mi WNW 3.5 mph - N/A   Clear
2:55 PM 71.6 °F 41.0 °F 33% 30.22 in 10.0 mi WNW 6.9 mph - N/A   Clear
3:15 PM 71.6 °F 42.8 °F 35% 30.21 in 10.0 mi NNW 4.6 mph - N/A   Clear
3:35 PM 71.6 °F 39.2 °F 31% 30.20 in 10.0 mi West 5.8 mph - N/A   Clear
3:55 PM 71.6 °F 37.4 °F 29% 30.20 in 10.0 mi NNW 4.6 mph - N/A   Clear
4:15 PM 71.6 °F 39.2 °F 31% 30.19 in 10.0 mi Calm Calm - N/A   Clear
4:35 PM 73.4 °F 39.2 °F 29% 30.19 in 10.0 mi NNW 3.5 mph - N/A   Clear
4:55 PM 71.6 °F 39.2 °F 31% 30.19 in 10.0 mi West 3.5 mph - N/A   Clear
5:15 PM 73.4 °F 41.0 °F 31% 30.18 in 10.0 mi North 3.5 mph - N/A   Clear
5:35 PM 71.6 °F 42.8 °F 35% 30.18 in 10.0 mi Calm Calm - N/A   Clear
5:55 PM 71.6 °F 42.8 °F 35% 30.18 in 10.0 mi North 3.5 mph - N/A   Clear
6:15 PM 71.6 °F 42.8 °F 35% 30.18 in 10.0 mi Calm Calm - N/A   Clear
6:35 PM 71.6 °F 44.6 °F 38% 30.17 in 10.0 mi NE 5.8 mph - N/A   Clear
6:55 PM 69.8 °F 44.6 °F 40% 30.18 in 10.0 mi NE 3.5 mph - N/A   Clear
7:15 PM 68.0 °F 46.4 °F 46% 30.17 in 10.0 mi NE 4.6 mph - N/A   Clear
7:35 PM 66.2 °F 46.4 °F 49% 30.18 in 10.0 mi ENE 3.5 mph - N/A   Clear
7:55 PM 64.4 °F 46.4 °F 52% 30.18 in 10.0 mi Calm Calm - N/A   Clear
8:15 PM 64.4 °F 44.6 °F 49% 30.18 in 10.0 mi East 3.5 mph - N/A   Clear
8:35 PM 62.6 °F 46.4 °F 55% 30.18 in 10.0 mi Calm Calm - N/A   Clear
8:55 PM 62.6 °F 44.6 °F 52% 30.18 in 10.0 mi Calm Calm - N/A   Clear
9:15 PM 62.6 °F 42.8 °F 48% 30.19 in 10.0 mi Calm Calm - N/A   Clear
9:30 PM 62.6 °F 42.8 °F 48% 30.19 in 10.0 mi Calm Calm - N/A   Clear
9:55 PM 60.8 °F 44.6 °F 55% 30.19 in 10.0 mi ESE 3.5 mph - N/A   Clear
10:15 PM 57.2 °F 44.6 °F 63% 30.19 in 10.0 mi ESE 3.5 mph - N/A   Clear
10:35 PM 59.0 °F 44.6 °F 59% 30.18 in 10.0 mi Calm Calm - N/A   Clear
10:55 PM 59.0 °F 42.8 °F 55% 30.19 in 10.0 mi Calm Calm - N/A   Clear
11:15 PM 59.0 °F 42.8 °F 55% 30.19 in 10.0 mi Calm Calm - N/A   Clear
11:35 PM 59.0 °F 42.8 °F 55% 30.19 in 10.0 mi Calm Calm - N/A   Clear
11:55 PM 57.2 °F 44.6 °F 63% 30.18 in 10.0 mi Calm Calm - N/A   Clear